Location: *
(41.0833°N, 73.4167°W)
Time: 11:40:23
(UTC+00:00)

SL-8 Rocket - Pass Details

Date: 22 October 2019
Orbit: 957 x 991 km, 82.9° (Epoch: 17 November)

Event Time Altitude Azimuth Distance (km) Brightness Sun altitude
Rises 09:52:34 0° 182° (S) 3,645 7.0 -15.8°
Reaches altitude 10° 09:55:04 10° 181° (S) 2,697 6.3 -15.3°
Maximum altitude 10:01:14 81° 96° (E) 979 4.1 -14.2°
Drops below altitude 10° 10:07:25 10° 9° (N) 2,699 6.4 -13.0°
Sets 10:09:55 0° 9° (N) 3,648 7.1 -12.5°
